Weather History for KIBM - October, 2012

Change the Weather History Date:

Monday, October 1, 2012

  Actual Average (KSNY) Record (KSNY)
Temperature  
Mean Temperature 54 °F 56 °F  
Max Temperature 65 °F 71 °F 91 °F (1980)
Min Temperature 43 °F 41 °F 20 °F (1985)
Degree Days  
Heating Degree Days 11 10  
Month to date heating degree days 10  
Since 1 July heating degree days 150  
Cooling Degree Days 0 1  
Month to date cooling degree days 1  
Year to date cooling degree days 827  
Growing Degree Days 4 (Base 50)    
Moisture  
Dew Point 36 °F    
Average Humidity 50    
Maximum Humidity 76    
Minimum Humidity 24    
Precipitation  
Precipitation 0.00 in 0.04 in 0.79 in (2014)
Month to date precipitation 0.04  
Year to date precipitation 16.45  
Sea Level Pressure  
Sea Level Pressure 30.24 in    
Wind  
Wind Speed 9 mph (North)    
Max Wind Speed 16 mph    
Max Gust Speed 26 mph    
Visibility 10 miles    
Events Rain    
T = Trace of Precipitation, MM = Missing Value Source: NWS Daily Summary

Daily Weather History Graph

Daily Weather History Graph

Search for Another Location

Airport or City:

Trip Planner

Search our weather history database for the weather conditions in past years. The results will help you decide how hot, cold, wet, or windy it might be!

Date:

Astronomy

Oct. 01, 2012 Rise Set
Actual Time 7:51 AM CDT 7:35 PM CDT
Civil Twilight 7:24 AM CDT 8:03 PM CDT
Nautical Twilight 6:52 AM CDT 8:35 PM CDT
Astronomical Twilight 6:20 AM CDT 9:07 PM CDT
Moon 8:12 PM CDT (10/1) 9:25 AM CDT (10/1)
Length of Visible Light 12h 38m
Length of Day
11h 43m
Full, 98% of the Moon is Illuminated
Oct 1
Full
Oct 8
Last Quarter
Oct 15
New
Oct 21
First Quarter
Oct 29
Full

Hourly Weather History & Observations

Time (CDT) Temp. Windchill Dew Point Humidity Pressure Visibility Wind Dir Wind Speed Gust Speed Precip Events Conditions
12:15 AM 60.8 °F - 39.2 °F 45% 30.20 in 10.0 mi NNW 8.1 mph - N/A   Mostly Cloudy
12:35 AM 59.4 °F - 39.0 °F 47% 30.19 in 10.0 mi NE 8.1 mph - N/A   Scattered Clouds
12:55 AM 56.3 °F - 38.5 °F 51% 30.19 in 10.0 mi NE 8.1 mph - N/A   Scattered Clouds
1:15 AM 53.6 °F - 39.4 °F 59% 30.20 in 10.0 mi NNE 6.9 mph - N/A   Mostly Cloudy
1:35 AM 54.0 °F - 39.6 °F 58% 30.21 in 10.0 mi North 8.1 mph - N/A   Scattered Clouds
1:55 AM 55.8 °F - 40.1 °F 56% 30.21 in 10.0 mi NNW 5.8 mph - N/A   Mostly Cloudy
2:15 AM 57.2 °F - 39.6 °F 52% 30.22 in 10.0 mi NNW 4.6 mph - N/A Rain Light Rain
2:35 AM 55.8 °F - 42.3 °F 60% 30.22 in 10.0 mi NNW 6.9 mph - N/A   Overcast
2:55 AM 55.9 °F - 41.7 °F 59% 30.23 in 10.0 mi North 6.9 mph - N/A   Mostly Cloudy
3:15 AM 56.1 °F - 42.6 °F 61% 30.23 in 10.0 mi North 8.1 mph - N/A   Overcast
3:35 AM 57.4 °F - 41.2 °F 55% 30.23 in 10.0 mi NNW 9.2 mph - N/A   Overcast
4:15 AM 55.8 °F - 41.2 °F 58% 30.22 in 10.0 mi NW 9.2 mph - N/A   Overcast
4:35 AM 55.4 °F - 41.2 °F 59% 30.23 in 10.0 mi NW 11.5 mph - N/A   Scattered Clouds
5:15 AM 54.1 °F - 41.2 °F 62% 30.24 in 10.0 mi WNW 11.5 mph - N/A   Scattered Clouds
5:35 AM 53.6 °F - 40.3 °F 61% 30.25 in 10.0 mi NW 11.5 mph - N/A   Scattered Clouds
5:55 AM 54.0 °F - 39.6 °F 58% 30.25 in 10.0 mi NW 15.0 mph - N/A   Clear
6:15 AM 53.6 °F - 39.2 °F 58% 30.25 in 10.0 mi NW 11.5 mph - N/A   Clear
6:35 AM 52.7 °F - 39.2 °F 60% 30.26 in 10.0 mi NW 13.8 mph 17.3 mph N/A   Clear
6:55 AM 51.1 °F - 38.8 °F 63% 30.26 in 10.0 mi NW 10.4 mph - N/A   Clear
7:15 AM 50.0 °F - 39.2 °F 66% 30.27 in 10.0 mi NW 9.2 mph - N/A   Clear
7:35 AM 49.1 °F - 38.5 °F 67% 30.28 in 10.0 mi NNW 9.2 mph - N/A   Clear
7:55 AM 49.6 °F - 38.8 °F 66% 30.29 in 10.0 mi NNW 9.2 mph - N/A   Clear
8:15 AM 48.4 °F - 39.2 °F 71% 30.30 in 10.0 mi NNW 8.1 mph - N/A   Clear
8:35 AM 49.1 °F - 39.9 °F 71% 30.31 in 10.0 mi North 10.4 mph - N/A   Clear
8:55 AM 50.4 °F - 41.9 °F 73% 30.32 in 10.0 mi North 13.8 mph - N/A   Clear
9:15 AM 51.6 °F - 43.3 °F 73% 30.32 in 10.0 mi North 15.0 mph - N/A   Clear
9:35 AM 51.8 °F - 44.6 °F 76% 30.32 in 10.0 mi North 15.0 mph 21.9 mph N/A   Scattered Clouds
10:15 AM 52.9 °F - 44.6 °F 73% 30.33 in 10.0 mi North 11.5 mph - N/A   Mostly Cloudy
10:35 AM 54.0 °F - 44.4 °F 70% 30.33 in 10.0 mi NNE 12.7 mph - N/A   Mostly Cloudy
10:55 AM 55.6 °F - 43.5 °F 64% 30.33 in 10.0 mi North 10.4 mph 17.3 mph N/A   Mostly Cloudy
11:15 AM 55.4 °F - 42.8 °F 63% 30.33 in 10.0 mi North 15.0 mph 19.6 mph N/A   Mostly Cloudy
11:35 AM 57.0 °F - 43.2 °F 60% 30.33 in 10.0 mi NNE 15.0 mph 18.4 mph N/A   Overcast
12:15 PM 58.8 °F - 42.8 °F 55% 30.32 in 10.0 mi North 15.0 mph 20.7 mph N/A   Mostly Cloudy
12:35 PM 59.9 °F - 41.7 °F 51% 30.32 in 10.0 mi North 16.1 mph 21.9 mph N/A   Mostly Cloudy
1:15 PM 60.6 °F - 39.7 °F 46% 30.30 in 10.0 mi NNW 13.8 mph 26.5 mph N/A   Scattered Clouds
1:35 PM 61.3 °F - 39.0 °F 44% 30.30 in 10.0 mi North 13.8 mph 21.9 mph N/A   Scattered Clouds
1:55 PM 61.9 °F - 37.8 °F 41% 30.28 in 10.0 mi North 15.0 mph 20.7 mph N/A   Scattered Clouds
2:15 PM 62.6 °F - 37.8 °F 40% 30.28 in 10.0 mi North 16.1 mph 19.6 mph N/A   Scattered Clouds
2:35 PM 63.3 °F - 35.8 °F 36% 30.27 in 10.0 mi NNE 11.5 mph 18.4 mph N/A   Clear
2:55 PM 63.9 °F - 34.9 °F 34% 30.26 in 10.0 mi North 10.4 mph 16.1 mph N/A   Scattered Clouds
3:15 PM 64.2 °F - 34.5 °F 33% 30.26 in 10.0 mi North 12.7 mph 19.6 mph N/A   Clear
3:35 PM 64.4 °F - 32.7 °F 31% 30.25 in 10.0 mi North 6.9 mph 13.8 mph N/A   Clear
3:55 PM 65.1 °F - 33.1 °F 30% 30.25 in 10.0 mi North 11.5 mph 24.2 mph N/A   Clear
4:15 PM 65.5 °F - 31.3 °F 28% 30.25 in 10.0 mi NNE 11.5 mph - N/A   Clear
4:35 PM 65.3 °F - 29.7 °F 26% 30.23 in 10.0 mi NNW 10.4 mph 17.3 mph N/A   Clear
4:55 PM 65.7 °F - 30.9 °F 27% 30.23 in 10.0 mi NE 8.1 mph - N/A   Clear
5:15 PM 65.3 °F - 30.0 °F 27% 30.22 in 10.0 mi North 9.2 mph - N/A   Clear
5:35 PM 65.3 °F - 27.9 °F 24% 30.21 in 10.0 mi North 13.8 mph - N/A   Clear
5:55 PM 65.5 °F - 28.6 °F 25% 30.21 in 10.0 mi NNW 5.8 mph - N/A   Clear
6:15 PM 64.8 °F - 28.9 °F 26% 30.21 in 10.0 mi North 9.2 mph - N/A   Clear
6:35 PM 64.0 °F - 28.4 °F 26% 30.20 in 10.0 mi North 8.1 mph - N/A   Clear
6:55 PM 63.3 °F - 28.0 °F 26% 30.19 in 10.0 mi NNE 6.9 mph - N/A   Clear
7:15 PM 60.8 °F - 28.4 °F 29% 30.19 in 10.0 mi North 4.6 mph - N/A   Clear
7:35 PM 57.4 °F - 28.4 °F 33% 30.19 in 10.0 mi Calm Calm - N/A   Clear
7:55 PM 56.1 °F - 28.6 °F 35% 30.18 in 10.0 mi Calm Calm - N/A   Clear
8:15 PM 49.1 °F - 28.9 °F 46% 30.17 in 10.0 mi East 5.8 mph - N/A   Clear
8:35 PM 47.8 °F - 30.2 °F 50% 30.17 in 10.0 mi East 9.2 mph - N/A   Clear
8:55 PM 48.6 °F - 30.2 °F 49% 30.17 in 10.0 mi ESE 3.5 mph - N/A   Clear
9:15 PM 48.4 °F - 30.2 °F 49% 30.18 in 10.0 mi SE 3.5 mph - N/A   Clear
9:35 PM 47.3 °F - 29.8 °F 51% 30.17 in 10.0 mi South 3.5 mph - N/A   Clear
9:55 PM 46.9 °F - 29.1 °F 50% 30.17 in 10.0 mi Calm Calm - N/A   Clear
10:15 PM 43.0 °F - 27.3 °F 54% 30.17 in 10.0 mi Calm Calm - N/A   Clear
10:35 PM 45.9 °F 42.9 °F 30.2 °F 54% 30.17 in 10.0 mi SSW 5.8 mph - N/A   Clear
11:15 PM 46.8 °F - 30.0 °F 52% 30.17 in 10.0 mi SW 6.9 mph - N/A   Clear
11:35 PM 46.4 °F 43.5 °F 30.0 °F 53% 30.17 in 10.0 mi WSW 5.8 mph - N/A   Clear
11:55 PM 44.8 °F 42.4 °F 29.5 °F 55% 30.16 in 10.0 mi SSW 4.6 mph - N/A   Clear